Location: Unspecified
(0.0000°N, 0.0000°E)
Time: 12:28:55
(UTC+00:00)

Amateur Radio Satellites - All Passes

Search period start: 18 December 2017 11:58
Search period end: 19 December 2017 11:58
Location: Unspecified, 0.0000°N, 0.0000°E

Satellite Date Start Highest point End Downlink Frequencies (MHz)
Time Altitude Azimuth
SRMSAT 18 Dec 12:01:01 12:06:57 65° 21° (NNE) 12:12:54 437.500
DUCHIFAT 1 18 Dec 12:03:40 12:07:46 55° 258° (WSW) 12:11:50 145.980
QB50P2 18 Dec 12:05:26 12:09:11 31° 258° (WSW) 12:12:55 145.880/145.840
VELOX 1 18 Dec 12:06:05 12:10:11 41° 102° (ESE) 12:14:18 145.980
SO-50 18 Dec 12:09:16 12:12:38 21° 113° (ESE) 12:16:00 436.795
SPROUT 18 Dec 12:15:54 12:20:06 67° 282° (WNW) 12:24:21 437.525
AO-91 18 Dec 12:17:33 12:21:07 19° 80° (E) 12:24:31 145.960
BUGSAT 1 18 Dec 12:28:36 12:32:33 46° 78° (ENE) 12:36:25 437.445
NANOSAT C BR1 18 Dec 12:33:43 12:36:30 17° 258° (WSW) 12:39:17 145.865
DX 1 18 Dec 12:49:54 12:53:14 22° 102° (ESE) 12:56:35 434.975-435.025
JUGNU 18 Dec 12:58:35 13:02:32 18° 194° (SSW) 13:06:28 437.505
Gurwin Techsat 1B 18 Dec 13:02:50 13:07:50 42° 77° (ENE) 13:12:48 435.225
YUBILEINY 18 Dec 13:09:23 13:15:52 23° 87° (E) 13:22:18 435.215
RS-15 18 Dec 13:17:51 13:29:34 60° 291° (WNW) 13:41:38 29.354- 29.394
Oscar 19 18 Dec 13:28:15 13:33:18 62° 257° (WSW) 13:38:21 437.125/150
AO-7 18 Dec 13:36:57 13:39:52 12° 72° (ENE) 13:42:47 .
SO-50 18 Dec 13:49:54 13:52:49 17° 292° (WNW) 13:55:44 436.795
SRMSAT 18 Dec 13:50:28 13:56:12 46° 201° (SSW) 14:01:54 437.500
AO-91 18 Dec 13:52:49 13:57:17 28° 257° (WSW) 14:01:31 145.960
UKube-1 18 Dec 14:00:32 14:04:45 63° 283° (WNW) 14:09:00 .
50 SAT 18 Dec 14:04:30 14:06:27 16° 281° (WNW) 14:08:25 437.505
NO-84 18 Dec 14:05:33 14:08:58 25° 58° (ENE) 14:12:28 435.350 FM
DX 1 18 Dec 14:26:41 14:29:08 15° 282° (WNW) 14:31:36 434.975-435.025
ITUPSAT 1 18 Dec 14:29:12 14:33:03 24° 103° (ESE) 14:36:55 437.325
M-CUBED/EXP-1 PRIME 18 Dec 14:36:20 14:39:23 21° 73° (ENE) 14:42:34 437.505
MOZHAYETS 4 18 Dec 14:37:55 14:42:28 56° 102° (ESE) 14:47:01
Gurwin Techsat 1B 18 Dec 14:45:30 14:47:28 12° 257° (WSW) 14:49:27 435.225
ITAMSAT 1 18 Dec 14:49:46 14:54:17 30° 77° (ENE) 14:58:47 435.822/435.867
JUGNU 18 Dec 14:51:25 14:52:31 10° 185° (S) 14:53:38 437.505
YUBILEINY 18 Dec 15:04:09 15:12:16 44° 267° (W) 15:20:23 435.215
AO-7 18 Dec 15:23:53 15:32:10 76° 254° (WSW) 15:40:26 .
BEESAT 18 Dec 15:34:57 15:39:26 42° 282° (WNW) 15:43:57 436.000
SRMSAT 18 Dec 15:41:32 15:45:43 19° 195° (SSW) 15:49:54 437.500
NO-84 18 Dec 15:43:17 15:46:06 17° 237° (WSW) 15:48:57 435.350 FM
DOVE 4 18 Dec 15:54:12 15:58:39 27° 78° (ENE) 16:03:04 437.250
KKS-1 18 Dec 16:00:28 16:01:58 12° 103° (ESE) 16:03:28 437.445
ITUPSAT 1 18 Dec 16:07:28 16:10:35 17° 282° (WNW) 16:13:42 437.325
FALCONSAT 3 18 Dec 16:11:11 16:14:48 59° 143° (SE) 16:18:27 435.103
M-CUBED/EXP-1 PRIME 18 Dec 16:11:13 16:13:31 15° 256° (WSW) 16:15:54 437.505
CUBESAT XI-V 18 Dec 16:12:17 16:16:46 48° 282° (WNW) 16:21:14 437.345
PCSat 18 Dec 16:28:56 16:34:20 82° 290° (WNW) 16:39:44 145.827
ITAMSAT 1 18 Dec 16:30:10 16:33:27 17° 257° (WSW) 16:36:43 435.822/435.867
JUGNU 18 Dec 16:41:10 16:42:46 11° 174° (S) 16:44:23 437.505
CUTE-I 18 Dec 16:48:38 16:49:49 11° 77° (ENE) 16:51:01 437.470
LilacSat-2 18 Dec 17:03:49 17:06:40 20° 79° (ENE) 17:09:29 437.200
KAITUO 1B 18 Dec 17:10:13 17:12:14 14° 79° (ENE) 17:14:15 145.475/437.950
XW-2D 18 Dec 17:11:59 17:15:08 25° 79° (ENE) 17:18:16 145.860 - 145.880
BEESAT 3 18 Dec 17:25:50 17:29:44 84° 115° (ESE) 17:33:41 437.485
HO-68 18 Dec 17:26:46 17:30:46 16° 75° (ENE) 17:34:43 435.675
XW-2B 18 Dec 17:27:34 17:31:09 43° 79° (E) 17:34:44 145.730 - 145.750
DOVE 4 18 Dec 17:32:16 17:36:00 20° 258° (WSW) 17:39:44 437.250
KKS-1 18 Dec 17:34:24 17:38:14 29° 282° (WNW) 17:42:04 437.445
SRMSAT 18 Dec 17:34:26 17:35:47 11° 186° (S) 17:37:08 437.500
XW-2F 18 Dec 17:35:43 17:39:23 55° 79° (ENE) 17:43:03 145.980 - 146.000
FALCONSAT 3 18 Dec 17:52:18 17:53:50 12° 324° (NW) 17:55:23 435.103
XW-2C 18 Dec 17:55:06 17:58:48 59° 259° (W) 18:02:30 145.795 - 145.815
STARS 18 Dec 18:04:58 18:08:57 36° 282° (WNW) 18:12:58 437.465
O/OREOS (USA 219) 18 Dec 18:10:54 18:15:10 46° 76° (ENE) 18:19:27 437.305
BEESAT 2 18 Dec 18:16:12 18:20:06 77° 112° (ESE) 18:24:03 435.950
STRAND 1 18 Dec 18:17:47 18:21:24 20° 103° (ESE) 18:25:00 437.568
nSIGHT-1 18 Dec 18:19:28 18:21:29 16° 54° (NE) 18:23:31 .
CUBEBUG 2 18 Dec 18:23:30 18:27:05 25° 79° (E) 18:30:34 437.445
CUTE-I 18 Dec 18:24:25 18:29:34 47° 257° (WSW) 18:34:43 437.470
CUTE 1.7 + AOD 2 18 Dec 18:26:25 18:30:33 56° 79° (E) 18:34:43 437.475
JUGNU 18 Dec 18:28:26 18:32:41 20° 165° (SSE) 18:36:54 437.505
NUDT-PHONESAT 18 Dec 18:31:23 18:34:25 25° 259° (WSW) 18:37:28 437.300
LilacSat-2 18 Dec 18:39:23 18:40:39 11° 259° (WSW) 18:41:54 437.200
KAITUO 1B 18 Dec 18:43:37 18:45:55 16° 259° (WSW) 18:48:14 145.475/437.950
AO-85 18 Dec 19:01:11 19:04:56 42° 112° (ESE) 19:08:35 145.980
AO-73 18 Dec 19:02:00 19:04:09 14° 79° (ENE) 19:06:15 145.935
HO-68 18 Dec 19:11:08 19:18:07 55° 256° (WSW) 19:25:06 435.675
ISS 18 Dec 19:15:45 19:19:00 82° 58° (ENE) 19:22:16 437.550
SRMSAT 18 Dec 19:25:19 19:26:10 10° 175° (S) 19:27:02 437.500
SEEDS 18 Dec 19:30:54 19:34:34 30° 259° (WSW) 19:38:16 437.485
XW-2A 18 Dec 19:31:36 19:34:55 81° 259° (W) 19:38:13 145.665 - 145.685
AAUSAT CUBESAT 2 18 Dec 19:35:55 19:40:04 79° 259° (W) 19:44:14 437.432
UWE-3 18 Dec 19:50:00 19:53:54 35° 258° (WSW) 19:57:42 435.000/436.395/437.385
nSIGHT-1 18 Dec 19:55:41 19:57:29 14° 234° (SW) 19:59:17 .
STRAND 1 18 Dec 19:56:12 20:00:17 25° 283° (WNW) 20:04:24 437.568
CUBEBUG 2 18 Dec 20:01:33 20:03:23 12° 257° (WSW) 20:05:13 437.445
ZACube-1 18 Dec 20:04:55 20:08:58 50° 258° (WSW) 20:12:58 437.345
FO-29 18 Dec 20:06:39 20:12:23 85° 99° (E) 20:17:40 435.910
JUGNU 18 Dec 20:16:20 20:22:02 47° 160° (SSE) 20:27:41 437.505
Oscar 11 18 Dec 20:16:28 20:20:46 75° 259° (W) 20:25:03 .
UNISAT 6 18 Dec 20:28:22 20:30:30 13° 103° (ESE) 20:32:38 437.425
AO-73 18 Dec 20:36:59 20:40:07 21° 258° (WSW) 20:43:13 145.935
Max Valier Satellite 18 Dec 20:47:36 20:50:08 18° 79° (E) 20:52:39 145.860
EO-88 18 Dec 21:04:53 21:07:38 20° 79° (E) 21:10:22 145.990 - 145.960
SRMSAT 18 Dec 21:12:23 21:16:17 18° 166° (SSE) 21:20:12 437.500
PRISM 18 Dec 21:22:17 21:23:52 12° 102° (ESE) 21:25:28 437.425
DELFI C3 18 Dec 21:31:24 21:35:14 46° 259° (WSW) 21:39:03 145.870
TIGRISAT 18 Dec 21:58:11 22:02:21 37° 281° (WNW) 22:06:37 435.000
UNISAT 6 18 Dec 22:03:00 22:06:53 29° 281° (W) 22:10:52 437.425
JUGNU 18 Dec 22:05:15 22:11:05 62° 339° (NNW) 22:16:52 437.505
Max Valier Satellite 18 Dec 22:22:23 22:23:40 12° 258° (WSW) 22:24:56 145.860
QB50P2 18 Dec 22:38:02 22:39:40 12° 102° (ESE) 22:41:19 145.880/145.840
RS-15 18 Dec 22:53:10 23:00:08 18° 66° (ENE) 23:06:55 29.354- 29.394
LO-87 18 Dec 22:53:32 22:57:06 84° 79° (E) 23:00:38 145.935 - 145.965
PRISM 18 Dec 22:55:39 22:58:52 23° 282° (WNW) 23:02:05 437.425
SRMSAT 18 Dec 23:00:17 23:05:51 41° 160° (SSE) 23:11:25 437.500
NANOSAT C BR1 18 Dec 23:03:14 23:06:26 21° 102° (ESE) 23:09:40 145.865
ESTCUBE 1 18 Dec 23:03:44 23:08:13 73° 78° (ENE) 23:12:42 437.505/2401.250
EO-79 18 Dec 23:20:46 23:24:50 46° 102° (ESE) 23:28:55 145.935-145.965
AIST 2D 18 Dec 23:31:38 23:34:09 19° 281° (W) 23:36:40 435.315
POLYITAN 1 18 Dec 23:44:50 23:49:05 76° 282° (WNW) 23:53:22 437.675
JUGNU 18 Dec 23:55:37 00:00:16 24° 343° (NNW) 00:04:54 437.505
DUCHIFAT 1 19 Dec 00:08:44 00:12:46 47° 282° (WNW) 00:16:52 145.980
QB50P2 19 Dec 00:11:37 00:15:10 26° 282° (WNW) 00:18:44 145.880/145.840
VELOX 1 19 Dec 00:17:11 00:21:36 61° 78° (ENE) 00:25:58 145.980
SO-50 19 Dec 00:20:38 00:25:05 41° 68° (ENE) 00:29:36 436.795
SPROUT 19 Dec 00:22:55 00:27:04 51° 258° (WSW) 00:31:11 437.525
Oscar 19 19 Dec 00:24:03 00:27:52 21° 103° (ESE) 00:31:42 437.125/150
AO-91 19 Dec 00:29:02 00:31:15 16° 104° (ESE) 00:33:35 145.960
BUGSAT 1 19 Dec 00:31:09 00:35:09 51° 102° (ESE) 00:39:13 437.445
NANOSAT C BR1 19 Dec 00:39:28 00:41:52 15° 282° (WNW) 00:44:17 145.865
SRMSAT 19 Dec 00:49:09 00:55:04 72° 339° (NNW) 01:01:00 437.500
DX 1 19 Dec 00:58:57 01:02:47 30° 78° (ENE) 01:06:37 434.975-435.025
RS-15 19 Dec 01:01:14 01:12:15 68° 250° (WSW) 01:23:00 29.354- 29.394
50 SAT 19 Dec 01:39:55 01:42:56 42° 259° (WSW) 01:45:57 437.505
Gurwin Techsat 1B 19 Dec 01:40:58 01:46:13 67° 282° (WNW) 01:51:30 435.225
YUBILEINY 19 Dec 01:41:00 01:49:19 47° 93° (E) 01:57:37 435.215
JUGNU 19 Dec 01:47:52 01:49:59 12° 351° (N) 01:52:05 437.505
NO-84 19 Dec 01:50:02 01:51:08 12° 124° (ESE) 01:52:13 435.350 FM
AO-7 19 Dec 01:59:59 02:06:08 23° 107° (ESE) 02:12:16 .
Oscar 19 19 Dec 02:02:48 02:06:54 24° 283° (WNW) 02:11:02 437.125/150
SO-50 19 Dec 02:04:34 02:05:20 10° 247° (WSW) 02:06:08 436.795
AO-91 19 Dec 02:06:02 02:07:31 12° 279° (W) 02:09:03 145.960
UKube-1 19 Dec 02:08:55 02:13:05 47° 258° (WSW) 02:17:13 .
BEESAT 19 Dec 02:20:28 02:23:47 19° 78° (ENE) 02:27:05 436.000
M-CUBED/EXP-1 PRIME 19 Dec 02:36:11 02:38:45 17° 104° (ESE) 02:41:12 437.505
DX 1 19 Dec 02:37:23 02:38:41 11° 257° (WSW) 02:39:58 434.975-435.025
SRMSAT 19 Dec 02:39:27 02:44:24 27° 342° (NNW) 02:49:24 437.500
ITUPSAT 1 19 Dec 02:50:44 02:55:18 47° 78° (ENE) 02:59:51 437.325
MOZHAYETS 4 19 Dec 02:54:34 02:59:07 85° 258° (WSW) 03:03:39
CUBESAT XI-V 19 Dec 02:55:22 02:57:48 14° 78° (ENE) 03:00:15 437.345
PCSat 19 Dec 03:23:23 03:27:19 20° 70° (ENE) 03:31:14 145.827
ITAMSAT 1 19 Dec 03:23:59 03:29:08 80° 104° (ESE) 03:34:19 435.822/435.867
NO-84 19 Dec 03:27:02 03:28:05 12° 302° (WNW) 03:29:09 435.350 FM
YUBILEINY 19 Dec 03:39:30 03:45:42 22° 273° (W) 03:51:58 435.215
AO-7 19 Dec 03:50:36 03:58:30 48° 286° (WNW) 04:06:26 .
FALCONSAT 3 19 Dec 03:54:08 03:57:43 55° 38° (NE) 04:01:18 435.103
BEESAT 19 Dec 03:57:39 04:01:17 22° 257° (WSW) 04:04:54 436.000
M-CUBED/EXP-1 PRIME 19 Dec 04:10:46 04:12:52 14° 288° (WNW) 04:14:53 437.505
KKS-1 19 Dec 04:11:23 04:14:22 18° 78° (ENE) 04:17:20 437.445
DOVE 4 19 Dec 04:15:04 04:18:56 40° 102° (ESE) 04:22:50 437.250
CUBESAT XI-V 19 Dec 04:31:00 04:34:53 27° 258° (WSW) 04:38:47 437.345
SRMSAT 19 Dec 04:31:28 04:34:14 13° 350° (N) 04:37:01 437.500
STARS 19 Dec 04:41:32 04:43:40 13° 78° (ENE) 04:45:45 437.465
LilacSat-2 19 Dec 04:58:19 05:00:51 17° 101° (ESE) 05:03:22 437.200
KAITUO 1B 19 Dec 05:03:21 05:04:08 11° 101° (ESE) 05:04:54 145.475/437.950
XW-2D 19 Dec 05:05:38 05:08:31 20° 101° (ESE) 05:11:23 145.860 - 145.880
PCSat 19 Dec 05:06:00 05:10:25 26° 251° (WSW) 05:14:52 145.827
BEESAT 3 19 Dec 05:17:14 05:21:02 83° 65° (ENE) 05:24:49 437.485
HO-68 19 Dec 05:19:36 05:22:17 12° 106° (ESE) 05:24:58 435.675
XW-2B 19 Dec 05:21:06 05:24:34 34° 101° (E) 05:28:02 145.730 - 145.750
CUTE-I 19 Dec 05:24:19 05:29:00 32° 103° (ESE) 05:33:41 437.470
JUGNU 19 Dec 05:27:09 05:30:12 14° 12° (NNE) 05:33:16 437.505
XW-2F 19 Dec 05:28:41 05:32:16 42° 101° (E) 05:35:52 145.980 - 146.000
FALCONSAT 3 19 Dec 05:35:00 05:36:44 13° 216° (SW) 05:38:27 435.103
KKS-1 19 Dec 05:47:19 05:50:38 20° 257° (WSW) 05:53:57 437.445
XW-2C 19 Dec 05:48:27 05:52:15 77° 281° (W) 05:56:03 145.795 - 145.815
SEEDS 19 Dec 06:02:39 06:04:12 12° 102° (ESE) 06:05:44 437.485
BEESAT 2 19 Dec 06:08:57 06:12:51 80° 70° (ENE) 06:16:42 435.950
STARS 19 Dec 06:16:02 06:19:43 26° 258° (WSW) 06:23:22 437.465
O/OREOS (USA 219) 19 Dec 06:21:37 06:26:14 84° 106° (ESE) 06:30:49 437.305
NUDT-PHONESAT 19 Dec 06:21:51 06:25:16 35° 281° (WNW) 06:28:41 437.300
UWE-3 19 Dec 06:25:59 06:28:22 14° 102° (ESE) 06:30:48 435.000/436.395/437.385
CUTE 1.7 + AOD 2 19 Dec 06:32:30 06:36:44 71° 103° (ESE) 06:40:57 437.475
LilacSat-2 19 Dec 06:32:43 06:34:50 14° 282° (WNW) 06:36:58 437.200
CUBEBUG 2 19 Dec 06:34:36 06:38:50 39° 102° (ESE) 06:43:11 437.445
KAITUO 1B 19 Dec 06:34:57 06:37:49 21° 281° (WNW) 06:40:41 145.475/437.950
XW-2D 19 Dec 06:41:07 06:42:24 11° 282° (WNW) 06:43:41 145.860 - 145.880
STRAND 1 19 Dec 06:49:05 06:54:03 49° 78° (ENE) 06:58:58 437.568
ISS 19 Dec 06:49:47 06:52:56 45° 125° (SE) 06:56:05 437.550
HO-68 19 Dec 07:02:34 07:09:37 65° 284° (WNW) 07:16:41 435.675
CUTE-I 19 Dec 07:05:37 07:08:46 16° 283° (WNW) 07:11:54 437.470
AO-73 19 Dec 07:09:49 07:13:15 21° 102° (ESE) 07:16:42 145.935
AO-85 19 Dec 07:11:49 07:17:05 89° 250° (WSW) 07:22:29 145.980
XW-2A 19 Dec 07:13:43 07:16:59 44° 101° (ESE) 07:20:14 145.665 - 145.685
JUGNU 19 Dec 07:14:36 07:19:46 31° 19° (NNE) 07:24:57 437.505
nSIGHT-1 19 Dec 07:26:42 07:29:21 24° 306° (NW) 07:32:00 .
SEEDS 19 Dec 07:36:08 07:39:35 25° 282° (WNW) 07:43:03 437.485
FO-29 19 Dec 07:36:39 07:43:39 50° 76° (ENE) 07:51:07 435.910
AAUSAT CUBESAT 2 19 Dec 07:39:12 07:43:17 70° 281° (W) 07:47:22 437.432
UWE-3 19 Dec 08:00:41 08:04:30 27° 281° (W) 08:08:25 435.000/436.395/437.385
SRMSAT 19 Dec 08:11:58 08:14:53 14° 11° (N) 08:17:48 437.500
ZACube-1 19 Dec 08:14:10 08:18:23 39° 281° (WNW) 08:22:39 437.345
Oscar 11 19 Dec 08:25:05 08:29:20 56° 281° (WNW) 08:33:36 .
TIGRISAT 19 Dec 08:36:54 08:39:12 14° 79° (ENE) 08:41:27 435.000
Max Valier Satellite 19 Dec 08:38:54 08:40:46 13° 101° (ESE) 08:42:37 145.860
UNISAT 6 19 Dec 08:40:50 08:43:52 19° 79° (ENE) 08:46:52 437.425
AO-73 19 Dec 08:46:10 08:49:11 18° 281° (WNW) 08:52:14 145.935
EO-88 19 Dec 08:54:58 08:56:55 14° 101° (ESE) 08:58:53 145.990 - 145.960
JUGNU 19 Dec 09:02:56 09:08:53 84° 21° (NNE) 09:14:53 437.505
FO-29 19 Dec 09:23:26 09:28:24 20° 258° (WSW) 09:33:37 435.910
PRISM 19 Dec 09:24:09 09:26:16 14° 78° (ENE) 09:28:22 437.425
DELFI C3 19 Dec 09:29:14 09:32:59 49° 281° (WNW) 09:36:45 145.870
SRMSAT 19 Dec 09:59:37 10:04:42 28° 18° (NNE) 10:09:47 437.500
Max Valier Satellite 19 Dec 10:11:50 10:14:18 17° 281° (WNW) 10:16:46 145.860
TIGRISAT 19 Dec 10:12:08 10:15:37 23° 257° (WSW) 10:19:03 435.000
UNISAT 6 19 Dec 10:17:20 10:20:18 18° 258° (WSW) 10:23:14 437.425
EO-88 19 Dec 10:28:06 10:30:16 15° 281° (WNW) 10:32:26 145.990 - 145.960
RS-15 19 Dec 10:34:59 10:41:26 16° 113° (ESE) 10:47:56 29.354- 29.394
LO-87 19 Dec 10:41:00 10:44:27 48° 102° (ESE) 10:47:56 145.935 - 145.965
QB50P2 19 Dec 10:43:33 10:45:52 14° 78° (ENE) 10:48:09 145.880/145.840
JUGNU 19 Dec 10:52:33 10:57:59 36° 200° (SSW) 11:03:29 437.505
PRISM 19 Dec 10:58:00 11:01:14 22° 258° (WSW) 11:04:28 437.425
NANOSAT C BR1 19 Dec 11:08:36 11:12:02 25° 78° (ENE) 11:15:27 145.865
AIST 2D 19 Dec 11:16:34 11:19:42 32° 259° (W) 11:22:50 435.315
ESTCUBE 1 19 Dec 11:17:40 11:22:09 71° 281° (WNW) 11:26:38 437.505/2401.250
EO-79 19 Dec 11:26:42 11:30:51 56° 78° (ENE) 11:34:56 145.935-145.965
